Regional Weather Roundup
Issued by NWS

Home | Current Version | Previous Version | Graphics & Text | Print | Product List | Glossary On
Versions: 1 2 3 4 5 6 7 8 9 10 11 12 13 14 15 16 17 18 19 20 21 22 23 24 25 26 27 28 29 30 31 32 33 34 35 36 37 38 39 40 41 42 43 44 45 46 47 48 49 50
154
ASUS45 KSLC 160710
RWRUT

UTAH REGIONAL WEATHER ROUNDUP
NATIONAL WEATHER SERVICE SALT LAKE CITY UT
1200 AM MST MON JAN 16 2017

UTZ001>011-023>025-160800-

NORTHERN UTAH

CITY           SKY/WX    TMP DP  RH WIND       PRES   REMARKS
BRIGHAM CITY     N/A     12   9  85 NW5       30.23S WCI   4
HILL AFB       CLOUDY    19  13  76 SE7       30.20R WCI  10
LOGAN          FOG        3   1  91 N5        30.26R VSB 1   WCI  -6
OGDEN          CLOUDY    21  16  81 S3        30.21S
SALT LAKE CITY CLOUDY    28  25  88 NW8       30.21R FOG     WCI  20
TOOELE VALLEY  CLOUDY    27  27 100 NW6       30.23R WCI  20
WENDOVER       CLEAR     25  21  86 CALM      30.23R
HEBER CITY     FOG        7   1  78 E5        30.16R VSB 1/4 WCI  -2
WEST JORDAN    CLOUDY    26  26 100 NW10      30.21R WCI  16

$$

UTZ011>015-024>027-160800-

CENTRAL/NORTHEAST UTAH

CITY           SKY/WX    TMP DP  RH WIND       PRES   REMARKS
PROVO AIRPORT  FLURRIES  28  22  78 NW5       30.20R WCI  23
MOAB/CANYONLAN MOCLDY    34  33  96 CALM      29.96R
DELTA          CLOUDY    28  27  93 NW6       30.17S WCI  22
PRICE          MOCLDY    26  19  74 E5        29.96S WCI  20
RICHFIELD      CLOUDY    30  27  86 N5        30.16R WCI  25
ROOSEVELT      CLOUDY    28  27  93 CALM      30.09S
VERNAL         CLOUDY    23  22  96 CALM      30.06R FOG

$$

UTZ013>016-019>022-027-160800-

SOUTHERN UTAH

CITY           SKY/WX    TMP DP  RH WIND       PRES   REMARKS
BRYCE CANYON   CLOUDY    21  18  88 NW13      30.02F WCI   9
CEDAR CITY     CLOUDY    28  22  78 N8        30.10R WCI  20
MILFORD        CLOUDY    30  22  72 N9        30.15R WCI  22
ST GEORGE      MOSUNNY   36  25  64 S6        30.10F WCI  31
HANKSVILLE     CLOUDY    36  36 100 MISG      30.00S
KANAB          CLEAR     30  28  93 CALM      30.07S
BLANDING       CLOUDY    35  34  97 CALM      30.00S

$$

REGIONAL REPORTS     COLORADO/ARIZONA

CITY           SKY/WX    TMP DP  RH WIND       PRES   REMARKS
CRAIG, CO      CLOUDY    19  15  84 W5        30.06S WCI  12
GRAND JUNCTION CLOUDY    35  27  72 N9        29.97R WCI  28
RIFLE, CO      CLOUDY    32  25  75 W7        29.97F WCI  26
MONTROSE, CO   MIX PCPN  35  32  88 NW5       29.96S WCI  31
CORTEZ, CO     CLOUDY    36  35  96 W6        29.91S WCI  31
COLORADO CITY    N/A     30  28  93 N3        30.06S
PAGE, AZ       CLOUDY    43  32  65 N8        29.97S
GRAND CANYON   CLOUDY    34  33  96 CALM      30.01F
KINGMAN, AZ    CLEAR     37  30  75 CALM      30.04S
FLAGSTAFF, AZ  CLOUDY    33  31  92 W6        30.00F WCI  28

$$

REGIONAL REPORTS    NEVADA/IDAHO/WYOMING

CITY           SKY/WX    TMP DP  RH WIND       PRES   REMARKS
LAS VEGAS, NV  MOCLDY    48  31  51 N9        30.04S
ELY, NY        CLOUDY    22  19  89 N12       30.15S WCI  10
ELKO, NV       CLOUDY    23  17  78 NW5       30.24S WCI  17
POCATELLO, ID  LGT SNOW  10   8  92 S6        30.30R FOG     WCI   0
BURLEY, ID     CLOUDY    12   8  84 CALM      30.29S
FORT BRIDGER,    N/A      5   4  92 W5        30.10S WCI  -4
EVANSTON, WY   CLOUDY     6   1  80 CALM      30.09R
ROCK SPRINGS,  CLOUDY     1  -3  83 W10       30.08R WCI -15

$$




USA.gov is the U.S. government's official web portal to all federal, state and local government web resources and services.